M I D A S
Marine Information and Data Acquisition System
Tripno 1207 of the Zeeleeuw from 2007-01-26 07:44:56 to 2007-01-26 15:02:39
Back to CruiseResearch ActivitiesStationsMapUnderway DataData graphs

EquipmentUnitsComments
TimeDGPSUTC
LatitudeDGPSDM.mWGS84
LongitudeDGPSDM.mWGS84
SpeedMeteo Stationm/sRelative wind speed
DirectionMeteo StationdegRelative wind direction
TemperatureMeteo Stationdeg CelciusAir temperature
PressureMeteo StationPaAtmospheric pressure
HumidityMeteo Station%Relative humidity
Missing or incorrect values are displayed as -999
Metereological data collected by the RV Zeeleeuw from 2007-01-26 07:45:56 to 2007-01-26 15:12:23
Time Latitude Longitude Speed Direction Temperature Pressure Humidity
2007-01-26 07:47 51°13.615 2°56.033 -999 -999 -999 -999 -999
2007-01-26 07:48 51°13.647 2°55.922 -999 -999 -999 -999 -999
2007-01-26 07:49 51°13.676 2°55.831 -999 -999 -999 -999 -999
2007-01-26 07:50 51°13.69 2°55.76 -999 -999 -999 -999 -999
2007-01-26 07:51 51°13.693 2°55.72 -999 -999 -999 -999 -999
2007-01-26 07:52 51°13.721 2°55.728 -999 -999 -999 -999 -999
2007-01-26 07:53 51°13.786 2°55.678 -999 -999 -999 -999 -999
2007-01-26 07:54 51°13.88 2°55.606 -999 -999 -999 -999 -999
2007-01-26 07:55 51°13.994 2°55.52 -999 -999 -999 -999 -999
2007-01-26 07:56 51°14.112 2°55.434 -999 -999 -999 -999 -999
2007-01-26 07:57 51°14.222 2°55.319 -999 -999 -999 -999 -999
2007-01-26 07:58 51°14.321 2°55.158 -999 -999 -999 -999 -999
2007-01-26 07:59 51°14.422 2°55.021 -999 -999 -999 -999 -999
2007-01-26 08:00 51°14.558 2°54.942 -999 -999 -999 -999 -999
2007-01-26 08:01 51°14.721 2°54.855 -999 -999 -999 -999 -999
2007-01-26 08:02 51°14.89 2°54.701 -999 -999 -999 -999 -999
2007-01-26 08:03 51°15.074 2°54.522 -999 -999 -999 -999 -999
2007-01-26 08:04 51°15.255 2°54.325 -999 -999 -999 -999 -999
2007-01-26 08:05 51°15.437 2°54.128 -999 -999 -999 -999 -999
2007-01-26 08:06 51°15.619 2°53.933 -999 -999 -999 -999 -999
2007-01-26 08:07 51°15.805 2°53.743 -999 -999 -999 -999 -999
2007-01-26 08:08 51°15.99 2°53.55 -999 -999 -999 -999 -999
2007-01-26 08:09 51°16.174 2°53.358 -999 -999 -999 -999 -999
2007-01-26 08:10 51°16.368 2°53.186 -999 -999 -999 -999 -999
2007-01-26 08:11 51°16.563 2°53.017 -999 -999 -999 -999 -999
2007-01-26 08:12 51°16.758 2°52.851 -999 -999 -999 -999 -999
2007-01-26 08:13 51°16.95 2°52.677 -999 -999 -999 -999 -999
2007-01-26 08:14 51°17.144 2°52.506 -999 -999 -999 -999 -999
2007-01-26 08:15 51°17.358 2°52.398 -999 -999 -999 -999 -999
2007-01-26 08:16 51°17.588 2°52.366 -999 -999 -999 -999 -999
2007-01-26 08:17 51°17.821 2°52.35 -999 -999 -999 -999 -999
2007-01-26 08:18 51°18.054 2°52.33 -999 -999 -999 -999 -999
2007-01-26 08:19 51°18.278 2°52.395 -999 -999 -999 -999 -999
2007-01-26 08:20 51°18.423 2°52.672 -999 -999 -999 -999 -999
2007-01-26 08:21 51°18.495 2°53.026 -999 -999 -999 -999 -999
2007-01-26 08:22 51°18.56 2°53.388 -999 -999 -999 -999 -999
2007-01-26 08:23 51°18.644 2°53.737 -999 -999 -999 -999 -999
2007-01-26 08:24 51°18.727 2°54.089 -999 -999 -999 -999 -999
2007-01-26 08:25 51°18.813 2°54.432 -999 -999 -999 -999 -999
2007-01-26 08:26 51°18.906 2°54.775 -999 -999 -999 -999 -999
2007-01-26 08:27 51°18.989 2°55.115 -999 -999 -999 -999 -999
2007-01-26 08:28 51°19.074 2°55.46 -999 -999 -999 -999 -999
2007-01-26 08:29 51°19.162 2°55.802 -999 -999 -999 -999 -999
2007-01-26 08:30 51°19.251 2°56.144 -999 -999 -999 -999 -999
2007-01-26 08:31 51°19.34 2°56.484 -999 -999 -999 -999 -999
2007-01-26 08:32 51°19.427 2°56.834 -999 -999 -999 -999 -999
2007-01-26 08:33 51°19.511 2°57.182 -999 -999 -999 -999 -999
2007-01-26 08:34 51°19.599 2°57.531 -999 -999 -999 -999 -999
2007-01-26 08:35 51°19.693 2°57.871 -999 -999 -999 -999 -999
2007-01-26 08:36 51°19.783 2°58.215 -999 -999 -999 -999 -999
2007-01-26 08:37 51°19.876 2°58.557 -999 -999 -999 -999 -999
2007-01-26 08:38 51°19.968 2°58.901 -999 -999 -999 -999 -999
2007-01-26 08:39 51°20.057 2°59.245 -999 -999 -999 -999 -999
2007-01-26 08:40 51°20.146 2°59.576 -999 -999 -999 -999 -999
2007-01-26 08:41 51°20.224 2°59.914 -999 -999 -999 -999 -999
2007-01-26 08:42 51°20.31 3°0.257 -999 -999 -999 -999 -999
2007-01-26 08:43 51°20.398 3°0.6 -999 -999 -999 -999 -999
2007-01-26 08:44 51°20.488 3°0.948 -999 -999 -999 -999 -999
2007-01-26 08:45 51°20.575 3°1.298 -999 -999 -999 -999 -999
2007-01-26 08:46 51°20.663 3°1.642 -999 -999 -999 -999 -999
2007-01-26 08:47 51°20.746 3°1.981 -999 -999 -999 -999 -999
2007-01-26 08:48 51°20.827 3°2.319 -999 -999 -999 -999 -999
2007-01-26 08:49 51°20.912 3°2.658 -999 -999 -999 -999 -999
2007-01-26 08:50 51°21.002 3°2.996 -999 -999 -999 -999 -999
2007-01-26 08:51 51°21.088 3°3.331 -999 -999 -999 -999 -999
2007-01-26 08:52 51°21.175 3°3.666 -999 -999 -999 -999 -999
2007-01-26 08:53 51°21.257 3°4.009 -999 -999 -999 -999 -999
2007-01-26 08:54 51°21.339 3°4.345 -999 -999 -999 -999 -999
2007-01-26 08:55 51°21.429 3°4.678 -999 -999 -999 -999 -999
2007-01-26 08:56 51°21.513 3°5.016 -999 -999 -999 -999 -999
2007-01-26 08:57 51°21.6 3°5.353 -999 -999 -999 -999 -999
2007-01-26 08:58 51°21.684 3°5.691 -999 -999 -999 -999 -999
2007-01-26 08:59 51°21.762 3°6.025 -999 -999 -999 -999 -999
2007-01-26 09:00 51°21.836 3°6.36 -999 -999 -999 -999 -999
2007-01-26 09:01 51°21.877 3°6.703 -999 -999 -999 -999 -999
2007-01-26 09:02 51°21.906 3°7.05 -999 -999 -999 -999 -999
2007-01-26 09:03 51°21.936 3°7.408 -999 -999 -999 -999 -999
2007-01-26 09:04 51°21.979 3°7.76 -999 -999 -999 -999 -999
2007-01-26 09:05 51°22.017 3°8.109 -999 -999 -999 -999 -999
2007-01-26 09:06 51°22.055 3°8.458 -999 -999 -999 -999 -999
2007-01-26 09:07 51°22.086 3°8.799 -999 -999 -999 -999 -999
2007-01-26 09:08 51°22.02 3°8.954 -999 -999 -999 -999 -999
2007-01-26 09:09 51°21.924 3°8.848 -999 -999 -999 -999 -999
2007-01-26 09:10 51°21.804 3°8.766 -999 -999 -999 -999 -999
2007-01-26 09:11 51°21.714 3°8.684 -999 -999 -999 -999 -999
2007-01-26 09:12 51°21.691 3°8.655 -999 -999 -999 -999 -999
2007-01-26 09:13 51°21.686 3°8.655 -999 -999 -999 -999 -999
2007-01-26 09:14 51°21.684 3°8.66 -999 -999 -999 -999 -999
2007-01-26 09:15 51°21.661 3°8.66 -999 -999 -999 -999 -999
2007-01-26 09:16 51°21.613 3°8.583 -999 -999 -999 -999 -999
2007-01-26 09:17 51°21.573 3°8.478 -999 -999 -999 -999 -999
2007-01-26 09:18 51°21.549 3°8.379 -999 -999 -999 -999 -999
2007-01-26 09:19 51°21.525 3°8.286 -999 -999 -999 -999 -999
2007-01-26 09:20 51°21.504 3°8.2 -999 -999 -999 -999 -999
2007-01-26 09:21 51°21.483 3°8.116 -999 -999 -999 -999 -999
2007-01-26 09:22 51°21.462 3°8.047 -999 -999 -999 -999 -999
2007-01-26 09:23 51°21.444 3°7.974 -999 -999 -999 -999 -999
2007-01-26 09:24 51°21.426 3°7.88 -999 -999 -999 -999 -999
2007-01-26 09:25 51°21.408 3°7.79 -999 -999 -999 -999 -999
2007-01-26 09:26 51°21.388 3°7.713 -999 -999 -999 -999 -999
2007-01-26 09:27 51°21.371 3°7.638 -999 -999 -999 -999 -999
2007-01-26 09:28 51°21.351 3°7.562 -999 -999 -999 -999 -999
2007-01-26 09:29 51°21.332 3°7.483 -999 -999 -999 -999 -999
2007-01-26 09:30 51°21.314 3°7.403 -999 -999 -999 -999 -999
2007-01-26 09:31 51°21.294 3°7.336 -999 -999 -999 -999 -999
2007-01-26 09:32 51°21.274 3°7.268 -999 -999 -999 -999 -999
2007-01-26 09:33 51°21.258 3°7.197 -999 -999 -999 -999 -999
2007-01-26 09:34 51°21.242 3°7.123 -999 -999 -999 -999 -999
2007-01-26 09:35 51°21.225 3°7.048 -999 -999 -999 -999 -999
2007-01-26 09:36 51°21.207 3°6.974 -999 -999 -999 -999 -999
2007-01-26 09:37 51°21.186 3°6.902 -999 -999 -999 -999 -999
2007-01-26 09:38 51°21.164 3°6.828 -999 -999 -999 -999 -999
2007-01-26 09:39 51°21.144 3°6.756 -999 -999 -999 -999 -999
2007-01-26 09:40 51°21.126 3°6.682 -999 -999 -999 -999 -999
2007-01-26 09:41 51°21.108 3°6.61 -999 -999 -999 -999 -999
2007-01-26 09:42 51°21.09 3°6.535 -999 -999 -999 -999 -999
2007-01-26 09:43 51°21.07 3°6.451 -999 -999 -999 -999 -999
2007-01-26 09:44 51°21.051 3°6.361 -999 -999 -999 -999 -999
2007-01-26 09:45 51°21.031 3°6.273 -999 -999 -999 -999 -999
2007-01-26 09:46 51°21.013 3°6.178 -999 -999 -999 -999 -999
2007-01-26 09:47 51°20.991 3°6.094 -999 -999 -999 -999 -999
2007-01-26 09:48 51°20.972 3°6.018 -999 -999 -999 -999 -999
2007-01-26 09:49 51°20.952 3°5.95 -999 -999 -999 -999 -999
2007-01-26 09:50 51°20.934 3°5.879 -999 -999 -999 -999 -999
2007-01-26 09:51 51°20.919 3°5.824 -999 -999 -999 -999 -999
2007-01-26 09:52 51°20.905 3°5.783 -999 -999 -999 -999 -999
2007-01-26 09:53 51°20.894 3°5.751 -999 -999 -999 -999 -999
2007-01-26 09:54 51°20.883 3°5.718 -999 -999 -999 -999 -999
2007-01-26 09:55 51°20.876 3°5.607 -999 -999 -999 -999 -999
2007-01-26 09:56 51°20.891 3°5.511 -999 -999 -999 -999 -999
2007-01-26 09:57 51°20.903 3°5.477 -999 -999 -999 -999 -999
2007-01-26 09:58 51°20.91 3°5.467 -999 -999 -999 -999 -999
2007-01-26 09:59 51°20.943 3°5.477 -999 -999 -999 -999 -999
2007-01-26 10:00 51°21.015 3°5.588 -999 -999 -999 -999 -999
2007-01-26 10:01 51°21.148 3°5.727 -999 -999 -999 -999 -999
2007-01-26 10:02 51°21.286 3°5.886 -999 -999 -999 -999 -999
2007-01-26 10:03 51°21.421 3°6.051 -999 -999 -999 -999 -999
2007-01-26 10:04 51°21.55 3°6.222 -999 -999 -999 -999 -999
2007-01-26 10:05 51°21.68 3°6.397 -999 -999 -999 -999 -999
2007-01-26 10:06 51°21.791 3°6.658 -999 -999 -999 -999 -999
2007-01-26 10:07 51°21.851 3°6.971 -999 -999 -999 -999 -999
2007-01-26 10:08 51°21.902 3°7.29 -999 -999 -999 -999 -999
2007-01-26 10:09 51°21.951 3°7.609 -999 -999 -999 -999 -999
2007-01-26 10:10 51°21.99 3°7.927 -999 -999 -999 -999 -999
2007-01-26 10:11 51°22.028 3°8.237 -999 -999 -999 -999 -999
2007-01-26 10:12 51°22.068 3°8.555 -999 -999 -999 -999 -999
2007-01-26 10:13 51°22.098 3°8.871 -999 -999 -999 -999 -999
2007-01-26 10:14 51°22.127 3°9.181 -999 -999 -999 -999 -999
2007-01-26 10:15 51°22.153 3°9.493 -999 -999 -999 -999 -999
2007-01-26 10:16 51°22.189 3°9.802 -999 -999 -999 -999 -999
2007-01-26 10:17 51°22.228 3°10.113 -999 -999 -999 -999 -999
2007-01-26 10:18 51°22.268 3°10.427 -999 -999 -999 -999 -999
2007-01-26 10:19 51°22.309 3°10.746 -999 -999 -999 -999 -999
2007-01-26 10:20 51°22.357 3°11.056 -999 -999 -999 -999 -999
2007-01-26 10:21 51°22.4 3°11.364 -999 -999 -999 -999 -999
2007-01-26 10:22 51°22.446 3°11.663 -999 -999 -999 -999 -999
2007-01-26 10:23 51°22.497 3°11.966 -999 -999 -999 -999 -999
2007-01-26 10:24 51°22.55 3°12.266 -999 -999 -999 -999 -999
2007-01-26 10:25 51°22.6 3°12.564 -999 -999 -999 -999 -999
2007-01-26 10:26 51°22.641 3°12.872 -999 -999 -999 -999 -999
2007-01-26 10:27 51°22.741 3°13.139 -999 -999 -999 -999 -999
2007-01-26 10:28 51°22.935 3°13.225 -999 -999 -999 -999 -999
2007-01-26 10:29 51°23.151 3°13.184 -999 -999 -999 -999 -999
2007-01-26 10:30 51°23.369 3°13.145 -999 -999 -999 -999 -999
2007-01-26 10:31 51°23.587 3°13.102 -999 -999 -999 -999 -999
2007-01-26 10:32 51°23.807 3°13.059 -999 -999 -999 -999 -999
2007-01-26 10:33 51°24.027 3°13.013 -999 -999 -999 -999 -999
2007-01-26 10:34 51°24.248 3°12.971 -999 -999 -999 -999 -999
2007-01-26 10:35 51°24.468 3°12.924 -999 -999 -999 -999 -999
2007-01-26 10:36 51°24.687 3°12.868 -999 -999 -999 -999 -999
2007-01-26 10:37 51°24.908 3°12.825 -999 -999 -999 -999 -999
2007-01-26 10:38 51°25.121 3°12.73 -999 -999 -999 -999 -999
2007-01-26 10:39 51°25.27 3°12.458 -999 -999 -999 -999 -999
2007-01-26 10:40 51°25.247 3°12.092 -999 -999 -999 -999 -999
2007-01-26 10:41 51°25.174 3°11.732 -999 -999 -999 -999 -999
2007-01-26 10:42 51°25.115 3°11.363 -999 -999 -999 -999 -999
2007-01-26 10:43 51°25.064 3°10.99 -999 -999 -999 -999 -999
2007-01-26 10:44 51°25.017 3°10.62 -999 -999 -999 -999 -999
2007-01-26 10:45 51°24.972 3°10.254 -999 -999 -999 -999 -999
2007-01-26 10:46 51°24.925 3°9.89 -999 -999 -999 -999 -999
2007-01-26 10:47 51°24.88 3°9.527 -999 -999 -999 -999 -999
2007-01-26 10:48 51°24.838 3°9.158 -999 -999 -999 -999 -999
2007-01-26 10:49 51°24.795 3°8.789 -999 -999 -999 -999 -999
2007-01-26 10:50 51°24.753 3°8.418 -999 -999 -999 -999 -999
2007-01-26 10:51 51°24.712 3°8.049 -999 -999 -999 -999 -999
2007-01-26 10:52 51°24.683 3°7.683 -999 -999 -999 -999 -999
2007-01-26 10:53 51°24.788 3°7.38 -999 -999 -999 -999 -999
2007-01-26 10:54 51°24.998 3°7.283 -999 -999 -999 -999 -999
2007-01-26 10:55 51°25.215 3°7.226 -999 -999 -999 -999 -999
2007-01-26 10:56 51°25.436 3°7.175 -999 -999 -999 -999 -999
2007-01-26 10:57 51°25.656 3°7.128 -999 -999 -999 -999 -999
2007-01-26 10:58 51°25.875 3°7.083 -999 -999 -999 -999 -999
2007-01-26 10:59 51°26.078 3°7.163 -999 -999 -999 -999 -999
2007-01-26 11:00 51°26.189 3°7.442 -999 -999 -999 -999 -999
2007-01-26 11:01 51°26.273 3°7.751 -999 -999 -999 -999 -999
2007-01-26 11:02 51°26.358 3°8.074 -999 -999 -999 -999 -999
2007-01-26 11:03 51°26.451 3°8.394 -999 -999 -999 -999 -999
2007-01-26 11:04 51°26.545 3°8.713 -999 -999 -999 -999 -999
2007-01-26 11:05 51°26.662 3°9.001 -999 -999 -999 -999 -999
2007-01-26 11:06 51°26.872 3°9.013 -999 -999 -999 -999 -999
2007-01-26 11:07 51°27.045 3°8.809 -999 -999 -999 -999 -999
2007-01-26 11:08 51°27.225 3°8.598 -999 -999 -999 -999 -999
2007-01-26 11:09 51°27.411 3°8.407 -999 -999 -999 -999 -999
2007-01-26 11:10 51°27.591 3°8.227 -999 -999 -999 -999 -999
2007-01-26 11:11 51°27.774 3°8.039 -999 -999 -999 -999 -999
2007-01-26 11:12 51°27.951 3°7.858 -999 -999 -999 -999 -999
2007-01-26 11:13 51°28.122 3°7.685 -999 -999 -999 -999 -999
2007-01-26 11:14 51°28.288 3°7.521 -999 -999 -999 -999 -999
2007-01-26 11:15 51°28.456 3°7.348 -999 -999 -999 -999 -999
2007-01-26 11:16 51°28.618 3°7.181 -999 -999 -999 -999 -999
2007-01-26 11:17 51°28.786 3°7.01 -999 -999 -999 -999 -999
2007-01-26 11:18 51°28.952 3°6.838 -999 -999 -999 -999 -999
2007-01-26 11:19 51°29.117 3°6.669 -999 -999 -999 -999 -999
2007-01-26 11:20 51°29.285 3°6.487 -999 -999 -999 -999 -999
2007-01-26 11:21 51°29.445 3°6.324 -999 -999 -999 -999 -999
2007-01-26 11:22 51°29.608 3°6.152 -999 -999 -999 -999 -999
2007-01-26 11:23 51°29.769 3°5.98 -999 -999 -999 -999 -999
2007-01-26 11:24 51°29.94 3°5.816 -999 -999 -999 -999 -999
2007-01-26 11:25 51°30.1 3°5.639 -999 -999 -999 -999 -999
2007-01-26 11:26 51°30.158 3°5.339 -999 -999 -999 -999 -999
2007-01-26 11:27 51°30.089 3°5.029 -999 -999 -999 -999 -999
2007-01-26 11:28 51°29.951 3°4.785 -999 -999 -999 -999 -999
2007-01-26 11:29 51°29.796 3°4.543 -999 -999 -999 -999 -999
2007-01-26 11:30 51°29.643 3°4.308 -999 -999 -999 -999 -999
2007-01-26 11:31 51°29.491 3°4.069 -999 -999 -999 -999 -999
2007-01-26 11:32 51°29.336 3°3.82 -999 -999 -999 -999 -999
2007-01-26 11:33 51°29.188 3°3.576 -999 -999 -999 -999 -999
2007-01-26 11:34 51°29.035 3°3.324 -999 -999 -999 -999 -999
2007-01-26 11:35 51°28.883 3°3.079 -999 -999 -999 -999 -999
2007-01-26 11:36 51°28.733 3°2.831 -999 -999 -999 -999 -999
2007-01-26 11:37 51°28.582 3°2.585 -999 -999 -999 -999 -999
2007-01-26 11:38 51°28.431 3°2.335 -999 -999 -999 -999 -999
2007-01-26 11:39 51°28.278 3°2.083 -999 -999 -999 -999 -999
2007-01-26 11:40 51°28.125 3°1.833 -999 -999 -999 -999 -999
2007-01-26 11:41 51°27.973 3°1.582 -999 -999 -999 -999 -999
2007-01-26 11:42 51°27.822 3°1.332 -999 -999 -999 -999 -999
2007-01-26 11:43 51°27.669 3°1.087 -999 -999 -999 -999 -999
2007-01-26 11:44 51°27.517 3°0.842 -999 -999 -999 -999 -999
2007-01-26 11:45 51°27.362 3°0.594 -999 -999 -999 -999 -999
2007-01-26 11:46 51°27.207 3°0.342 -999 -999 -999 -999 -999
2007-01-26 11:47 51°27.053 3°0.098 -999 -999 -999 -999 -999
2007-01-26 11:48 51°26.9 2°59.844 -999 -999 -999 -999 -999
2007-01-26 11:49 51°26.751 2°59.599 -999 -999 -999 -999 -999
2007-01-26 11:50 51°26.596 2°59.353 -999 -999 -999 -999 -999
2007-01-26 11:51 51°26.448 2°59.112 -999 -999 -999 -999 -999
2007-01-26 11:52 51°26.356 2°58.829 -999 -999 -999 -999 -999
2007-01-26 11:53 51°26.395 2°58.516 -999 -999 -999 -999 -999
2007-01-26 11:54 51°26.542 2°58.327 -999 -999 -999 -999 -999
2007-01-26 11:55 51°26.73 2°58.295 -999 -999 -999 -999 -999
2007-01-26 11:56 51°26.915 2°58.368 -999 -999 -999 -999 -999
2007-01-26 11:57 51°27.099 2°58.452 -999 -999 -999 -999 -999
2007-01-26 11:58 51°27.284 2°58.538 -999 -999 -999 -999 -999
2007-01-26 11:59 51°27.466 2°58.632 -999 -999 -999 -999 -999
2007-01-26 12:00 51°27.653 2°58.719 -999 -999 -999 -999 -999
2007-01-26 12:01 51°27.84 2°58.8 -999 -999 -999 -999 -999
2007-01-26 12:02 51°28.026 2°58.876 -999 -999 -999 -999 -999
2007-01-26 12:03 51°28.214 2°58.956 -999 -999 -999 -999 -999
2007-01-26 12:04 51°28.398 2°59.04 -999 -999 -999 -999 -999
2007-01-26 12:05 51°28.585 2°59.124 -999 -999 -999 -999 -999
2007-01-26 12:06 51°28.772 2°59.21 -999 -999 -999 -999 -999
2007-01-26 12:07 51°28.959 2°59.292 -999 -999 -999 -999 -999
2007-01-26 12:08 51°29.142 2°59.375 -999 -999 -999 -999 -999
2007-01-26 12:09 51°29.325 2°59.451 -999 -999 -999 -999 -999
2007-01-26 12:10 51°29.508 2°59.535 -999 -999 -999 -999 -999
2007-01-26 12:11 51°29.691 2°59.616 -999 -999 -999 -999 -999
2007-01-26 12:12 51°29.872 2°59.697 -999 -999 -999 -999 -999
2007-01-26 12:13 51°30.054 2°59.773 -999 -999 -999 -999 -999
2007-01-26 12:14 51°30.235 2°59.851 -999 -999 -999 -999 -999
2007-01-26 12:15 51°30.416 2°59.925 -999 -999 -999 -999 -999
2007-01-26 12:16 51°30.601 2°59.986 -999 -999 -999 -999 -999
2007-01-26 12:17 51°30.79 3°0.044 -999 -999 -999 -999 -999
2007-01-26 12:18 51°30.975 3°0.108 -999 -999 -999 -999 -999
2007-01-26 12:19 51°31.154 3°0.168 -999 -999 -999 -999 -999
2007-01-26 12:20 51°31.33 3°0.231 -999 -999 -999 -999 -999
2007-01-26 12:21 51°31.507 3°0.289 -999 -999 -999 -999 -999
2007-01-26 12:22 51°31.677 3°0.348 -999 -999 -999 -999 -999
2007-01-26 12:23 51°31.852 3°0.41 -999 -999 -999 -999 -999
2007-01-26 12:24 51°32.027 3°0.471 -999 -999 -999 -999 -999
2007-01-26 12:25 51°32.199 3°0.532 -999 -999 -999 -999 -999
2007-01-26 12:26 51°32.369 3°0.595 -999 -999 -999 -999 -999
2007-01-26 12:27 51°32.541 3°0.656 -999 -999 -999 -999 -999
2007-01-26 12:28 51°32.711 3°0.72 -999 -999 -999 -999 -999
2007-01-26 12:29 51°32.879 3°0.778 -999 -999 -999 -999 -999
2007-01-26 12:30 51°33.054 3°0.837 -999 -999 -999 -999 -999
2007-01-26 12:31 51°33.225 3°0.896 -999 -999 -999 -999 -999
2007-01-26 12:32 51°33.395 3°0.954 -999 -999 -999 -999 -999
2007-01-26 12:33 51°33.57 3°1.012 -999 -999 -999 -999 -999
2007-01-26 12:34 51°33.743 3°1.072 -999 -999 -999 -999 -999
2007-01-26 12:35 51°33.911 3°1.137 -999 -999 -999 -999 -999
2007-01-26 12:36 51°34.079 3°1.19 -999 -999 -999 -999 -999
2007-01-26 12:37 51°34.248 3°1.157 -999 -999 -999 -999 -999
2007-01-26 12:38 51°34.413 3°1.103 -999 -999 -999 -999 -999
2007-01-26 12:39 51°34.58 3°1.05 -999 -999 -999 -999 -999
2007-01-26 12:40 51°34.75 3°0.997 -999 -999 -999 -999 -999
2007-01-26 12:41 51°34.923 3°0.944 -999 -999 -999 -999 -999
2007-01-26 12:42 51°35.099 3°0.891 -999 -999 -999 -999 -999
2007-01-26 12:43 51°35.275 3°0.832 -999 -999 -999 -999 -999
2007-01-26 12:44 51°35.453 3°0.775 -999 -999 -999 -999 -999
2007-01-26 12:45 51°35.592 3°0.633 -999 -999 -999 -999 -999
2007-01-26 12:46 51°35.602 3°0.354 -999 -999 -999 -999 -999
2007-01-26 12:47 51°35.486 3°0.096 -999 -999 -999 -999 -999
2007-01-26 12:48 51°35.352 2°59.843 -999 -999 -999 -999 -999
2007-01-26 12:49 51°35.218 2°59.586 -999 -999 -999 -999 -999
2007-01-26 12:50 51°35.085 2°59.33 -999 -999 -999 -999 -999
2007-01-26 12:51 51°34.953 2°59.079 -999 -999 -999 -999 -999
2007-01-26 12:52 51°34.82 2°58.83 -999 -999 -999 -999 -999
2007-01-26 12:53 51°34.688 2°58.583 -999 -999 -999 -999 -999
2007-01-26 12:54 51°34.557 2°58.329 -999 -999 -999 -999 -999
2007-01-26 12:55 51°34.426 2°58.092 -999 -999 -999 -999 -999
2007-01-26 12:56 51°34.304 2°57.862 -999 -999 -999 -999 -999
2007-01-26 12:57 51°34.177 2°57.623 -999 -999 -999 -999 -999
2007-01-26 12:58 51°34.053 2°57.393 -999 -999 -999 -999 -999
2007-01-26 12:59 51°33.93 2°57.16 -999 -999 -999 -999 -999
2007-01-26 13:00 51°33.802 2°56.919 -999 -999 -999 -999 -999
2007-01-26 13:01 51°33.676 2°56.683 -999 -999 -999 -999 -999
2007-01-26 13:02 51°33.555 2°56.441 -999 -999 -999 -999 -999
2007-01-26 13:03 51°33.435 2°56.211 -999 -999 -999 -999 -999
2007-01-26 13:04 51°33.322 2°55.965 -999 -999 -999 -999 -999
2007-01-26 13:05 51°33.204 2°55.717 -999 -999 -999 -999 -999
2007-01-26 13:06 51°33.089 2°55.473 -999 -999 -999 -999 -999
2007-01-26 13:07 51°32.974 2°55.227 -999 -999 -999 -999 -999
2007-01-26 13:08 51°32.859 2°54.98 -999 -999 -999 -999 -999
2007-01-26 13:09 51°32.745 2°54.732 -999 -999 -999 -999 -999
2007-01-26 13:10 51°32.631 2°54.489 -999 -999 -999 -999 -999
2007-01-26 13:11 51°32.521 2°54.246 -999 -999 -999 -999 -999
2007-01-26 13:12 51°32.408 2°54.001 -999 -999 -999 -999 -999
2007-01-26 13:13 51°32.297 2°53.759 -999 -999 -999 -999 -999
2007-01-26 13:14 51°32.187 2°53.515 -999 -999 -999 -999 -999
2007-01-26 13:15 51°32.076 2°53.265 -999 -999 -999 -999 -999
2007-01-26 13:16 51°31.965 2°53.011 -999 -999 -999 -999 -999
2007-01-26 13:17 51°31.86 2°52.751 -999 -999 -999 -999 -999
2007-01-26 13:18 51°31.758 2°52.5 -999 -999 -999 -999 -999
2007-01-26 13:19 51°31.659 2°52.235 -999 -999 -999 -999 -999
2007-01-26 13:20 51°31.56 2°51.972 -999 -999 -999 -999 -999
2007-01-26 13:21 51°31.461 2°51.706 -999 -999 -999 -999 -999
2007-01-26 13:22 51°31.362 2°51.45 -999 -999 -999 -999 -999
2007-01-26 13:23 51°31.265 2°51.193 -999 -999 -999 -999 -999
2007-01-26 13:24 51°31.162 2°50.937 -999 -999 -999 -999 -999
2007-01-26 13:25 51°31.056 2°50.697 -999 -999 -999 -999 -999
2007-01-26 13:26 51°30.951 2°50.449 -999 -999 -999 -999 -999
2007-01-26 13:27 51°30.845 2°50.193 -999 -999 -999 -999 -999
2007-01-26 13:28 51°30.741 2°49.937 -999 -999 -999 -999 -999
2007-01-26 13:29 51°30.633 2°49.682 -999 -999 -999 -999 -999
2007-01-26 13:30 51°30.528 2°49.433 -999 -999 -999 -999 -999
2007-01-26 13:31 51°30.472 2°49.163 -999 -999 -999 -999 -999
2007-01-26 13:32 51°30.562 2°48.98 -999 -999 -999 -999 -999
2007-01-26 13:33 51°30.707 2°49.01 -999 -999 -999 -999 -999
2007-01-26 13:34 51°30.864 2°49.024 -999 -999 -999 -999 -999
2007-01-26 13:35 51°31.021 2°48.989 -999 -999 -999 -999 -999
2007-01-26 13:36 51°31.123 2°49.161 -999 -999 -999 -999 -999
2007-01-26 13:37 51°31.09 2°49.423 -999 -999 -999 -999 -999
2007-01-26 13:38 51°30.964 2°49.648 -999 -999 -999 -999 -999
2007-01-26 13:39 51°30.775 2°49.724 -999 -999 -999 -999 -999
2007-01-26 13:40 51°30.576 2°49.679 -999 -999 -999 -999 -999
2007-01-26 13:41 51°30.372 2°49.667 -999 -999 -999 -999 -999
2007-01-26 13:42 51°30.171 2°49.707 -999 -999 -999 -999 -999
2007-01-26 13:43 51°29.971 2°49.758 -999 -999 -999 -999 -999
2007-01-26 13:44 51°29.769 2°49.801 -999 -999 -999 -999 -999
2007-01-26 13:45 51°29.569 2°49.846 -999 -999 -999 -999 -999
2007-01-26 13:46 51°29.371 2°49.886 -999 -999 -999 -999 -999
2007-01-26 13:47 51°29.174 2°49.921 -999 -999 -999 -999 -999
2007-01-26 13:48 51°28.978 2°49.963 -999 -999 -999 -999 -999
2007-01-26 13:49 51°28.779 2°49.996 -999 -999 -999 -999 -999
2007-01-26 13:50 51°28.58 2°50.028 -999 -999 -999 -999 -999
2007-01-26 13:51 51°28.381 2°50.06 -999 -999 -999 -999 -999
2007-01-26 13:52 51°28.183 2°50.089 -999 -999 -999 -999 -999
2007-01-26 13:53 51°27.986 2°50.121 -999 -999 -999 -999 -999
2007-01-26 13:54 51°27.789 2°50.155 -999 -999 -999 -999 -999
2007-01-26 13:55 51°27.591 2°50.184 -999 -999 -999 -999 -999
2007-01-26 13:56 51°27.393 2°50.219 -999 -999 -999 -999 -999
2007-01-26 13:57 51°27.194 2°50.252 -999 -999 -999 -999 -999
2007-01-26 13:58 51°26.993 2°50.284 -999 -999 -999 -999 -999
2007-01-26 13:59 51°26.795 2°50.318 -999 -999 -999 -999 -999
2007-01-26 14:00 51°26.597 2°50.357 -999 -999 -999 -999 -999
2007-01-26 14:01 51°26.401 2°50.392 -999 -999 -999 -999 -999
2007-01-26 14:02 51°26.202 2°50.423 -999 -999 -999 -999 -999
2007-01-26 14:03 51°26.007 2°50.456 -999 -999 -999 -999 -999
2007-01-26 14:04 51°25.813 2°50.493 -999 -999 -999 -999 -999
2007-01-26 14:05 51°25.618 2°50.526 -999 -999 -999 -999 -999
2007-01-26 14:06 51°25.422 2°50.558 -999 -999 -999 -999 -999
2007-01-26 14:07 51°25.225 2°50.59 -999 -999 -999 -999 -999
2007-01-26 14:08 51°25.026 2°50.623 -999 -999 -999 -999 -999
2007-01-26 14:09 51°24.83 2°50.655 -999 -999 -999 -999 -999
2007-01-26 14:10 51°24.632 2°50.685 -999 -999 -999 -999 -999
2007-01-26 14:11 51°24.436 2°50.72 -999 -999 -999 -999 -999
2007-01-26 14:12 51°24.239 2°50.761 -999 -999 -999 -999 -999
2007-01-26 14:13 51°24.044 2°50.804 -999 -999 -999 -999 -999
2007-01-26 14:14 51°23.848 2°50.844 -999 -999 -999 -999 -999
2007-01-26 14:15 51°23.651 2°50.883 -999 -999 -999 -999 -999
2007-01-26 14:16 51°23.456 2°50.926 -999 -999 -999 -999 -999
2007-01-26 14:17 51°23.26 2°50.969 -999 -999 -999 -999 -999
2007-01-26 14:18 51°23.062 2°51.017 -999 -999 -999 -999 -999
2007-01-26 14:19 51°22.866 2°51.06 -999 -999 -999 -999 -999
2007-01-26 14:20 51°22.672 2°51.104 -999 -999 -999 -999 -999
2007-01-26 14:21 51°22.48 2°51.15 -999 -999 -999 -999 -999
2007-01-26 14:22 51°22.288 2°51.193 -999 -999 -999 -999 -999
2007-01-26 14:23 51°22.095 2°51.236 -999 -999 -999 -999 -999
2007-01-26 14:24 51°21.902 2°51.285 -999 -999 -999 -999 -999
2007-01-26 14:25 51°21.709 2°51.325 -999 -999 -999 -999 -999
2007-01-26 14:26 51°21.518 2°51.367 -999 -999 -999 -999 -999
2007-01-26 14:27 51°21.327 2°51.407 -999 -999 -999 -999 -999
2007-01-26 14:28 51°21.137 2°51.448 -999 -999 -999 -999 -999
2007-01-26 14:29 51°20.947 2°51.491 -999 -999 -999 -999 -999
2007-01-26 14:30 51°20.755 2°51.536 -999 -999 -999 -999 -999
2007-01-26 14:31 51°20.563 2°51.579 -999 -999 -999 -999 -999
2007-01-26 14:32 51°20.37 2°51.627 -999 -999 -999 -999 -999
2007-01-26 14:33 51°20.177 2°51.678 -999 -999 -999 -999 -999
2007-01-26 14:34 51°19.977 2°51.726 -999 -999 -999 -999 -999
2007-01-26 14:35 51°19.771 2°51.776 -999 -999 -999 -999 -999
2007-01-26 14:36 51°19.564 2°51.825 -999 -999 -999 -999 -999
2007-01-26 14:37 51°19.36 2°51.877 -999 -999 -999 -999 -999
2007-01-26 14:38 51°19.154 2°51.925 -999 -999 -999 -999 -999
2007-01-26 14:39 51°18.948 2°51.979 -999 -999 -999 -999 -999
2007-01-26 14:40 51°18.744 2°52.029 -999 -999 -999 -999 -999
2007-01-26 14:41 51°18.537 2°52.066 -999 -999 -999 -999 -999
2007-01-26 14:42 51°18.331 2°52.106 -999 -999 -999 -999 -999
2007-01-26 14:43 51°18.125 2°52.151 -999 -999 -999 -999 -999
2007-01-26 14:44 51°17.917 2°52.196 -999 -999 -999 -999 -999
2007-01-26 14:45 51°17.71 2°52.242 -999 -999 -999 -999 -999
2007-01-26 14:46 51°17.502 2°52.286 -999 -999 -999 -999 -999
2007-01-26 14:47 51°17.294 2°52.331 -999 -999 -999 -999 -999
2007-01-26 14:48 51°17.088 2°52.38 -999 -999 -999 -999 -999
2007-01-26 14:49 51°16.883 2°52.426 -999 -999 -999 -999 -999
2007-01-26 14:50 51°16.673 2°52.486 -999 -999 -999 -999 -999
2007-01-26 14:51 51°16.453 2°52.557 -999 -999 -999 -999 -999
2007-01-26 14:52 51°16.238 2°52.655 -999 -999 -999 -999 -999
2007-01-26 14:53 51°16.032 2°52.803 -999 -999 -999 -999 -999
2007-01-26 14:54 51°15.835 2°52.995 -999 -999 -999 -999 -999
2007-01-26 14:55 51°15.637 2°53.177 -999 -999 -999 -999 -999
2007-01-26 14:56 51°15.44 2°53.354 -999 -999 -999 -999 -999
2007-01-26 14:57 51°15.24 2°53.534 -999 -999 -999 -999 -999
2007-01-26 14:58 51°15.045 2°53.714 -999 -999 -999 -999 -999
2007-01-26 14:59 51°14.881 2°53.953 -999 -999 -999 -999 -999
2007-01-26 15:00 51°14.738 2°54.211 -999 -999 -999 -999 -999
2007-01-26 15:01 51°14.601 2°54.509 -999 -999 -999 -999 -999
2007-01-26 15:02 51°14.474 2°54.813 -999 -999 -999 -999 -999
2007-01-26 15:03 51°14.345 2°55.112 -999 -999 -999 -999 -999
2007-01-26 15:04 51°14.19 2°55.363 -999 -999 -999 -999 -999
2007-01-26 15:05 51°14.031 2°55.486 -999 -999 -999 -999 -999
2007-01-26 15:06 51°13.883 2°55.593 -999 -999 -999 -999 -999
2007-01-26 15:07 51°13.761 2°55.71 -999 -999 -999 -999 -999
2007-01-26 15:08 51°13.685 2°55.833 -999 -999 -999 -999 -999
2007-01-26 15:09 51°13.642 2°55.932 -999 -999 -999 -999 -999
2007-01-26 15:10 51°13.612 2°56.022 -999 -999 -999 -999 -999
2007-01-26 15:11 51°13.601 2°56.083 -999 -999 -999 -999 -999
2007-01-26 15:12 51°13.597 2°56.093 -999 -999 -999 -999 -999